[[{"header":{"parameterUnit":"m.s-1","parameterCategory":1,"la1":30.2992,"la2":30.254,"lo1":-89.0895,"lo2":-89.0443,"dy":0.0025,"dx":0.0025,"nx":19,"ny":19,"refTime":"2026-04-22T21:00:00:Z","depth":0,"parameterNumber":2,"parameterNumberName":"U-component_of_WINDS"},"data":[0,0,0,-2.8009,-2.801,-2.8028,-2.8028,-2.8068,-2.8068,0,0,0,0,0,0,0,0,0,0,0,-2.8012,-2.8013,-2.8009,-2.801,-2.8028,-2.8028,-2.8067,-2.8068,0,0,0,0,0,0,0,0,0,0,0,-2.8012,-2.8013,-2.8014,-2.801,-2.8028,-2.8028,-2.8067,-2.8048,0,0,0,0,0,0,0,0,0,0,-2.8027,-2.8039,-2.8013,-2.8014,-2.801,-2.8028,-2.8028,-2.8047,-2.8049,-2.8066,0,-2.8082,0,-2.8076,-2.8072,-2.8072,0,0,0,-2.8003,-2.8037,-2.8034,-2.8014,-2.801,-2.8028,-2.8018,-2.8048,-2.8051,-2.8069,-2.8082,-2.8084,-2.8076,-2.8072,-2.8072,-2.8187,-2.8188,0,0,-2.8002,-2.8021,-2.8032,-2.8036,-2.8034,-2.8018,-2.8019,-2.8049,-2.8066,-2.8083,-2.8084,-2.8077,-2.8072,-2.8073,-2.8187,-2.8188,0,0,0,-2.8004,-2.802,-2.8016,-2.8035,-2.8037,-2.8018,-2.802,-2.8064,-2.8061,-2.8084,-2.8078,-2.8073,-2.8073,-2.8186,-2.8187,-2.8245,0,0,0,-2.8003,-2.8021,-2.8016,-2.8027,-2.8037,-2.8051,-2.8034,-2.8059,-2.8062,-2.8077,-2.8073,-2.8074,-2.8185,-2.8186,-2.8241,-2.8269,0,0,0,-2.8008,-2.8021,-2.8027,-2.8028,-2.8037,-2.805,-2.8048,-2.8059,-2.8058,-2.8072,-2.8074,-2.8184,-2.8186,-2.8238,-2.8264,-2.8304,0,0,0,-2.8019,-2.8079,-2.8028,-2.8092,-2.8037,-2.8086,-2.8048,-2.8084,-2.8103,-2.8073,-2.8185,-2.8187,-2.8237,-2.826,-2.8301,-2.834,-2.8359,0,0,-2.8105,-2.809,-2.8126,-2.8081,-2.8144,-2.8082,-2.8153,-2.8153,-2.8139,-2.8172,-2.8175,-2.8243,-2.8263,-2.8303,-2.8458,-2.8473,0,0,0,-2.8159,-2.8185,-2.8198,-2.8217,-2.8219,-2.8222,-2.821,-2.821,-2.8237,-2.8159,-2.8268,-2.828,-2.8303,-2.8321,-2.8333,-2.8351,-2.8196,-2.8196,-2.8196,-2.8305,-2.8283,-2.8341,-2.8322,-2.834,-2.8327,-2.834,-2.8339,-2.8311,-2.8337,-2.8346,-2.8443,-2.8465,-2.8474,-2.8493,-2.8367,-2.8367,-2.8367,-2.8367,-2.8427,-2.846,-2.8422,-2.8465,-2.8442,-2.8478,-2.8469,-2.8448,-2.8478,-2.8434,-2.8453,-2.8405,-2.8491,-2.8506,-2.8372,-2.8371,-2.837,-2.837,-2.837,-2.8518,-2.853,-2.853,-2.8555,-2.8577,-2.8555,-2.8586,-2.8564,-2.8544,-2.8563,-2.857,-2.8569,-2.8564,-2.8568,-2.8569,-2.8569,-2.8569,-2.8569,-2.857,-2.8613,-2.861,-2.8639,-2.8646,-2.8656,-2.8665,-2.8654,-2.8663,-2.8667,-2.8648,-2.8648,-2.8618,-2.8504,-2.8475,-2.8575,-2.8574,-2.8573,-2.8573,-2.8572,-2.8742,-2.8709,-2.8753,-2.8763,-2.877,-2.8793,-2.8766,-2.8785,-2.879,-2.8806,-2.8772,-2.8692,-2.8675,-2.8665,-2.8641,-2.8777,-2.8777,-2.8777,-2.8777,-2.8818,-2.8808,-2.8847,-2.8864,-2.8878,-2.8857,-2.8908,-2.8901,-2.8888,-2.8889,-2.8867,-2.8834,-2.8824,-2.8813,-2.88,-2.8776,-2.8944,-2.8944,-2.8945,-2.8895,-2.8886,-2.8933,-2.8919,-2.8924,-2.8929,-2.8976,-2.8996,-2.8975,-2.8951,-2.889,-2.8883,-2.8829,-2.8812,-2.8784,-2.8764,-2.8721,0,0]},{"header":{"parameterUnit":"m.s-1","parameterCategory":1,"la1":30.2992,"la2":30.254,"lo1":-89.0895,"lo2":-89.0443,"dy":0.0025,"dx":0.0025,"nx":19,"ny":19,"refTime":"2026-04-22T21:00:00:Z","depth":0,"parameterNumber":3,"parameterNumberName":"V-component_of_WINDS"},"data":[0,0,0,5.5652,5.5651,5.5599,5.5598,5.5537,5.5536,0,0,0,0,0,0,0,0,0,0,0,5.5673,5.5673,5.5652,5.5651,5.5599,5.5598,5.5537,5.5536,0,0,0,0,0,0,0,0,0,0,0,5.5673,5.5673,5.5673,5.565,5.5599,5.5598,5.5537,5.5574,0,0,0,0,0,0,0,0,0,0,5.5623,5.5649,5.5673,5.5673,5.565,5.5599,5.5598,5.5575,5.5572,5.5564,0,5.5561,0,5.5548,5.5533,5.5533,0,0,0,5.5645,5.5652,5.5634,5.5673,5.565,5.5599,5.5621,5.5573,5.5569,5.5559,5.556,5.5557,5.5547,5.5533,5.5532,5.5513,5.5513,0,0,5.5648,5.5666,5.5637,5.5631,5.5643,5.5622,5.5619,5.557,5.5572,5.5559,5.5556,5.5546,5.5532,5.5532,5.5513,5.5513,0,0,0,5.566,5.5668,5.565,5.5634,5.5624,5.5621,5.5617,5.5574,5.5567,5.5555,5.5545,5.5532,5.5531,5.5513,5.5513,5.554,0,0,0,5.5661,5.5675,5.5652,5.5662,5.5626,5.5599,5.5622,5.557,5.5564,5.5546,5.5532,5.5531,5.5512,5.5513,5.5539,5.5549,0,0,0,5.5674,5.5676,5.5671,5.5663,5.5642,5.5599,5.5589,5.5568,5.5558,5.5533,5.5531,5.5512,5.5513,5.5538,5.5547,5.555,0,0,0,5.5692,5.5693,5.5672,5.5669,5.5642,5.5618,5.5589,5.5569,5.555,5.5532,5.5513,5.5513,5.5537,5.5546,5.555,5.5557,5.5562,0,0,5.5703,5.5695,5.5692,5.5672,5.5656,5.5624,5.5611,5.5575,5.5554,5.5527,5.5527,5.5539,5.5547,5.555,5.5582,5.5586,0,0,0,5.5701,5.57,5.5692,5.5677,5.5652,5.5632,5.5597,5.5584,5.5561,5.5545,5.554,5.5544,5.5546,5.5548,5.5551,5.5551,5.5515,5.5515,5.5515,5.574,5.5718,5.5712,5.5685,5.567,5.5636,5.5622,5.5598,5.5576,5.5576,5.5568,5.559,5.5594,5.5596,5.5596,5.5569,5.5569,5.557,5.557,5.5755,5.5749,5.5725,5.5711,5.5687,5.5673,5.5641,5.5626,5.5609,5.5593,5.5593,5.5578,5.5601,5.56,5.5571,5.5571,5.5571,5.5571,5.5571,5.5778,5.5772,5.5759,5.5737,5.5722,5.5693,5.5679,5.5656,5.5634,5.5634,5.5624,5.5623,5.562,5.5631,5.5631,5.5631,5.5631,5.5631,5.5631,5.5808,5.5792,5.5785,5.5762,5.5751,5.5733,5.5701,5.5688,5.5668,5.5652,5.5652,5.5631,5.5608,5.5603,5.5632,5.5632,5.5632,5.5632,5.5632,5.583,5.5823,5.5812,5.5801,5.5773,5.5761,5.5733,5.571,5.5696,5.569,5.567,5.5657,5.5646,5.5643,5.5639,5.5675,5.5675,5.5675,5.5675,5.585,5.5844,5.5829,5.5814,5.5796,5.5771,5.5759,5.5734,5.5707,5.5697,5.5688,5.5681,5.5679,5.5669,5.5665,5.5661,5.5702,5.5702,5.5702,5.5864,5.5855,5.585,5.5826,5.5803,5.5784,5.5772,5.5753,5.572,5.5703,5.5688,5.5687,5.5675,5.5672,5.5653,5.5648,5.564,0,0]}]]